Wind_Speed
87 87 88 88 89 89 89 89 89 89 88 88 88 87 87 86 86 85 85 84 84 83 83 83 82 82 82 82 83 83 84 84 83 82 82 81 81 81 81 81 82 83
88 88 89 89 90 90 90 90 90 90 89 89 89 88 88 87 87 86 85 85 84 84 83 83 83 83 82 82 82 82 83 83 83 82 82 82 82 82 82 82 83 84
89 89 90 90 90 90 90 90 90 90 90 89 89 89 88 88 87 86 86 85 85 84 83 83 83 83 83 82 82 82 82 82 82 82 83 83 83 83 83 84 85 86
89 90 90 90 90 90 90 90 90 90 89 89 89 89 88 88 87 86 86 85 85 84 83 83 83 82 82 82 82 82 82 82 82 83 83 83 84 85 86 86 87 87
89 90 90 90 90 90 90 90 89 89 88 88 87 87 86 86 86 85 85 85 84 84 83 83 83 82 82 82 82 82 83 83 83 84 85 85 86 87 88 89 89 89
89 89 89 89 89 89 88 88 87 86 86 85 84 84 84 83 83 83 83 83 83 83 83 82 82 83 83 83 83 83 83 84 85 86 87 87 87 88 89 91 91 91
89 88 88 87 86 85 85 84 84 83 83 82 82 82 82 81 81 81 82 82 82 82 82 82 82 83 83 84 84 84 85 86 87 88 88 89 89 90 91 93 94 94
87 86 85 84 83 82 82 81 80 80 80 80 80 80 80 80 80 80 80 81 81 81 82 82 83 83 84 84 85 85 86 87 88 89 90 91 91 92 93 94 96 96
84 83 82 81 80 79 79 79 78 78 78 78 78 78 79 79 79 80 80 80 80 81 81 82 82 83 84 84 85 86 86 87 88 90 91 91 92 93 94 96 97 98
80 79 78 78 77 77 76 76 76 76 76 76 76 77 77 77 78 78 78 79 79 80 80 81 82 82 83 84 85 85 86 87 88 89 90 91 92 93 94 96 97 98
75 74 74 74 74 74 74 74 74 74 74 75 75 75 75 76 76 76 77 77 77 78 78 79 80 80 81 82 83 84 85 85 86 87 88 89 90 91 92 93 95 96
71 71 71 71 72 72 72 73 73 73 74 74 74 75 75 75 76 76 77 77 77 78 78 79 80 80 81 81 82 83 84 84 85 86 86 87 88 88 90 91 92 93
70 70 70 71 71 72 72 73 73 74 74 75 76 76 77 77 77 77 78 78 79 79 79 80 80 81 81 82 83 84 84 85 85 86 87 87 87 88 89 89 90 91
70 70 71 71 72 73 73 74 75 75 76 77 77 78 78 78 79 79 79 79 80 80 80 81 82 82 83 84 85 85 86 87 88 88 89 89 89 89 90 91 91 92
72 72 73 73 74 75 75 76 76 77 77 78 78 79 79 79 80 80 80 81 81 82 82 83 84 85 86 87 88 89 90 91 91 92 92 92 92 92 92 93 94 95
74 75 75 76 77 77 78 78 79 79 79 80 80 81 81 81 82 82 83 83 84 84 85 86 87 88 90 91 92 93 94 95 95 95 95 95 95 95 95 96 97 98
78 78 78 79 80 80 81 81 82 82 82 83 83 84 84 84 85 86 86 87 88 88 89 90 90 92 94 95 95 97 98 99 99 98 98 98 98 99 99 99 99 100
80 81 81 82 82 83 83 84 84 85 85 86 86 87 87 88 88 89 89 90 91 92 92 92 93 95 96 97 98 98 99 101 101 101 101 101 101 101 102 102 102 102
83 83 83 84 85 86 86 87 87 88 88 89 89 89 89 90 90 91 91 92 93 93 94 94 94 95 96 97 98 98 99 100 101 102 101 101 101 101 102 102 102 102
86 86 86 87 88 88 89 89 90 90 90 91 91 90 90 90 90 90 90 91 91 92 92 91 91 91 92 93 93 93 94 94 95 95 94 94 94 93 93 93 93 93
88 89 89 89 89 90 90 90 90 90 90 90 89 89 89 88 88 87 86 86 86 86 86 85 84 85 85 86 86 85 85 85 85 84 84 84 83 83 82 81 80 79
89 89 89 88 88 88 88 87 87 87 87 87 86 85 84 83 83 82 81 81 80 80 80 79 77 78 79 78 78 78 78 78 77 76 75 74 73 72 71 69 68 67
87 87 87 86 86 85 85 84 84 83 83 83 82 80 79 78 78 77 76 75 75 74 75 74 73 72 73 72 71 71 71 70 69 67 66 64 62 61 60 58 57 55
86 86 86 86 85 84 83 82 81 80 80 79 78 77 75 73 73 71 70 69 69 69 70 70 68 67 66 65 64 63 62 61 60 58 56 54 51 49 49 48 47 45
86 85 85 84 82 81 79 78 77 76 75 74 73 72 70 68 67 66 64 63 63 63 64 64 63 61 59 58 56 55 54 52 51 50 47 44 41 39 39 39 38 37
82 82 81 79 78 76 74 72 72 71 70 68 67 66 64 63 61 61 59 57 56 57 58 58 57 54 52 51 49 47 45 44 43 42 39 36 33 32 32 32 32 31
Wind_Direction
285 285 285 285 285 285 285 285 285 284 284 284 284 283 283 283 282 282 282 281 281 280 280 279 278 277 276 275 274 273 273 272 271 269 268 266 265 263 262 261 261 260
286 286 286 286 285 285 285 285 284 284 284 283 283 283 282 282 282 281 281 280 280 280 279 278 278 277 276 274 273 272 271 270 269 267 266 264 262 261 260 259 258 258
286 286 286 285 285 285 285 285 284 284 284 283 283 282 282 281 281 280 280 279 279 278 277 277 276 275 274 273 272 271 270 268 267 265 263 262 261 259 258 258 257 257
286 286 286 286 286 286 286 285 285 285 285 284 284 283 282 282 281 280 280 279 278 277 276 276 275 274 273 272 271 270 269 267 265 263 261 260 259 258 257 257 257 257
287 287 287 287 287 287 286 286 286 286 285 285 284 284 283 282 282 281 280 279 278 278 276 275 275 273 272 271 270 269 268 266 265 263 262 260 259 258 257 257 257 257
289 288 288 288 288 288 287 287 286 285 285 284 284 283 283 282 281 281 280 279 278 278 277 276 275 273 272 271 270 269 268 266 265 263 262 261 260 260 260 259 258 258
291 290 290 290 289 288 288 287 286 286 285 284 284 283 282 282 281 280 279 279 278 277 276 275 274 273 272 271 270 269 268 267 266 264 263 262 261 261 261 261 261 260
292 292 291 291 290 289 289 288 287 287 286 285 285 284 283 282 282 281 280 279 278 277 277 276 275 274 273 272 271 270 269 268 267 266 265 264 263 262 262 263 263 262
293 293 293 292 291 291 290 290 289 288 287 287 286 285 284 284 283 282 281 281 280 279 278 277 276 275 274 273 272 271 270 269 268 267 266 265 265 264 264 264 264 264
295 294 294 294 293 292 292 291 290 289 288 288 287 286 285 284 284 283 282 282 281 280 279 278 277 276 276 275 274 273 272 271 270 269 268 267 266 266 265 265 265 264
296 295 295 294 293 292 292 291 290 289 288 288 287 286 285 285 284 283 283 282 281 281 280 279 278 278 277 276 275 275 274 273 272 271 270 270 269 268 267 266 266 266
296 295 294 294 293 292 291 291 290 289 288 288 287 286 285 285 284 284 283 282 281 281 280 279 279 278 277 276 275 275 274 273 272 272 271 270 270 269 268 268 267 267
295 295 294 293 292 292 291 290 290 289 288 288 287 286 286 285 285 284 283 283 282 281 281 280 279 278 278 277 276 275 274 273 272 271 270 270 269 269 268 268 267 267
295 294 293 293 292 291 290 290 289 289 288 288 287 286 286 285 285 284 284 283 283 282 281 281 280 279 278 277 277 276 275 274 272 271 271 270 269 269 268 268 267 267
295 294 294 293 292 291 291 290 289 289 288 288 287 287 286 286 285 285 284 284 283 283 282 281 281 280 279 278 277 276 275 274 273 272 272 271 270 269 269 268 268 267
296 295 294 294 293 292 291 291 290 290 289 288 288 288 287 287 286 286 285 285 284 283 283 282 282 281 280 280 279 278 277 276 275 274 273 272 271 270 269 269 268 267
296 296 295 294 293 293 292 292 291 291 290 290 289 289 288 288 287 287 287 286 285 285 284 284 283 283 282 281 280 280 279 278 277 276 275 274 273 272 270 269 268 267
297 296 295 295 294 293 293 292 292 291 291 290 290 289 289 288 288 288 287 287 287 286 285 285 284 284 283 282 282 281 281 280 279 278 277 276 275 273 272 271 269 268
297 297 296 295 295 294 294 293 292 292 291 290 290 289 289 289 288 288 288 288 287 287 286 286 285 285 284 283 283 283 282 281 281 280 279 277 276 275 274 272 271 269
298 298 297 296 296 295 294 294 293 292 292 291 291 290 290 289 289 289 289 288 288 288 287 286 286 285 285 284 284 284 283 282 281 281 280 279 278 276 275 274 272 271
300 299 298 297 297 296 295 295 294 294 293 292 292 291 291 291 290 290 290 289 289 289 288 287 287 286 286 285 285 284 284 283 282 282 281 280 279 278 276 275 273 272
301 301 300 299 298 297 297 296 295 295 294 293 293 293 292 292 292 292 291 290 290 289 289 288 288 287 287 286 286 285 285 284 284 283 282 281 280 279 277 275 274 272
303 302 301 300 300 299 298 297 296 296 295 294 294 294 294 293 293 293 292 292 291 290 290 289 288 288 288 288 287 287 286 286 285 284 282 281 279 278 277 276 274 271
305 304 303 301 301 300 299 298 297 297 296 296 295 295 295 294 294 293 293 293 293 292 291 290 289 289 289 289 289 288 287 286 286 284 282 281 280 279 277 275 273 269
306 305 304 302 301 301 300 299 298 298 297 297 297 297 297 297 296 296 295 295 295 293 292 291 291 291 292 292 291 289 288 288 286 285 283 283 282 279 276 273 270 266
308 307 305 304 303 302 301 300 300 299 299 299 299 299 300 300 299 298 298 297 296 295 294 294 294 295 295 294 292 291 290 290 287 286 285 285 283 279 274 270 266 261
Height
5470 5466 5463 5459 5455 5452 5449 5446 5443 5441 5438 5436 5433 5431 5429 5427 5424 5423 5421 5419 5417 5415 5414 5412 5410 5409 5408 5407 5406 5405 5405 5404 5404 5403 5402 5404 5404 5405 5406 5407 5406 5407
5457 5454 5450 5447 5443 5439 5436 5433 5430 5428 5425 5423 5420 5418 5416 5413 5411 5409 5408 5406 5404 5402 5400 5399 5397 5395 5394 5394 5392 5392 5392 5391 5390 5389 5389 5390 5391 5391 5393 5394 5393 5394
5445 5441 5437 5434 5430 5426 5423 5420 5417 5414 5411 5409 5406 5404 5402 5400 5398 5396 5394 5393 5391 5390 5388 5386 5384 5382 5381 5380 5379 5379 5379 5378 5377 5376 5376 5378 5378 5377 5379 5379 5380 5381
5432 5428 5424 5420 5416 5412 5409 5406 5403 5399 5396 5394 5392 5389 5387 5385 5383 5382 5380 5378 5377 5376 5375 5372 5371 5369 5368 5367 5366 5366 5365 5364 5364 5363 5363 5365 5365 5364 5366 5366 5366 5368
5418 5415 5411 5407 5403 5399 5395 5392 5389 5385 5383 5380 5378 5375 5373 5371 5369 5367 5365 5364 5362 5361 5360 5359 5357 5356 5354 5353 5353 5352 5352 5351 5350 5349 5349 5352 5352 5350 5352 5352 5352 5354
5405 5401 5398 5394 5390 5386 5382 5379 5376 5373 5370 5367 5364 5362 5359 5357 5355 5353 5351 5350 5348 5347 5346 5344 5343 5341 5340 5339 5339 5338 5338 5337 5337 5336 5336 5338 5338 5337 5337 5337 5337 5340
5392 5388 5384 5381 5377 5373 5369 5366 5362 5359 5356 5354 5351 5348 5346 5344 5342 5340 5338 5336 5335 5333 5332 5330 5329 5327 5325 5324 5325 5324 5324 5323 5323 5322 5322 5323 5324 5324 5324 5321 5321 5324
5378 5374 5370 5367 5363 5359 5355 5352 5349 5346 5343 5340 5338 5335 5332 5329 5327 5326 5324 5322 5321 5319 5318 5316 5314 5313 5311 5310 5310 5310 5309 5308 5308 5307 5307 5308 5309 5311 5310 5307 5306 5309
5365 5361 5357 5353 5350 5346 5342 5339 5336 5333 5329 5327 5325 5322 5319 5316 5313 5312 5310 5308 5307 5305 5303 5301 5300 5298 5297 5295 5294 5294 5293 5293 5292 5291 5292 5293 5294 5295 5296 5293 5291 5294
5352 5348 5345 5340 5337 5334 5330 5327 5323 5321 5318 5314 5312 5309 5306 5304 5301 5299 5297 5295 5293 5291 5289 5287 5285 5283 5282 5280 5279 5277 5277 5277 5276 5275 5275 5276 5278 5279 5279 5278 5276 5278
5342 5338 5334 5330 5326 5322 5319 5315 5312 5309 5306 5303 5300 5298 5295 5291 5289 5286 5284 5282 5280 5277 5275 5273 5270 5269 5268 5266 5264 5262 5261 5260 5260 5260 5259 5260 5261 5262 5262 5261 5260 5262
5332 5328 5324 5320 5316 5312 5308 5304 5301 5297 5294 5291 5288 5285 5282 5279 5277 5274 5271 5269 5267 5264 5262 5260 5257 5255 5253 5251 5250 5247 5246 5245 5245 5244 5244 5244 5245 5245 5245 5245 5245 5246
5322 5318 5314 5310 5306 5301 5297 5294 5290 5286 5283 5279 5275 5272 5270 5267 5264 5261 5258 5255 5253 5251 5248 5246 5244 5242 5239 5236 5235 5233 5231 5230 5230 5228 5228 5229 5229 5230 5230 5230 5230 5230
5312 5308 5304 5300 5295 5291 5287 5283 5279 5275 5271 5268 5264 5260 5257 5254 5251 5248 5246 5243 5240 5237 5235 5232 5229 5227 5224 5221 5219 5218 5215 5214 5213 5212 5212 5213 5215 5215 5215 5214 5214 5214
5302 5298 5294 5289 5284 5280 5276 5271 5267 5264 5260 5256 5251 5248 5244 5241 5238 5235 5232 5229 5226 5223 5220 5217 5215 5212 5209 5205 5202 5201 5198 5196 5196 5196 5196 5197 5198 5199 5199 5198 5197 5197
5291 5286 5282 5277 5272 5267 5263 5258 5254 5250 5246 5242 5238 5234 5231 5227 5224 5220 5217 5214 5212 5209 5206 5203 5200 5196 5192 5188 5185 5182 5179 5177 5177 5178 5178 5179 5180 5181 5181 5181 5179 5179
5279 5274 5269 5264 5258 5254 5249 5244 5240 5236 5231 5227 5223 5220 5216 5212 5209 5205 5202 5198 5194 5192 5190 5187 5184 5179 5173 5170 5168 5164 5160 5157 5157 5159 5160 5160 5160 5160 5160 5161 5160 5159
5266 5261 5257 5251 5245 5240 5235 5230 5226 5221 5217 5212 5209 5205 5201 5197 5193 5189 5186 5181 5177 5174 5173 5170 5167 5161 5154 5151 5150 5147 5143 5138 5136 5137 5139 5139 5138 5137 5137 5137 5137 5138
5252 5248 5243 5237 5231 5225 5221 5216 5211 5206 5201 5197 5194 5191 5186 5182 5178 5174 5170 5165 5160 5157 5155 5153 5149 5143 5136 5133 5131 5130 5126 5121 5116 5115 5116 5117 5116 5115 5114 5113 5114 5114
5238 5233 5227 5222 5216 5210 5205 5200 5195 5190 5185 5180 5177 5175 5171 5167 5163 5159 5154 5149 5144 5139 5137 5136 5132 5125 5120 5117 5115 5112 5108 5103 5099 5097 5096 5095 5095 5093 5092 5091 5091 5091
5222 5217 5212 5206 5200 5194 5189 5184 5178 5173 5168 5163 5161 5158 5154 5150 5146 5142 5139 5134 5129 5123 5120 5119 5116 5109 5104 5103 5099 5095 5091 5087 5084 5082 5080 5078 5076 5075 5073 5073 5073 5073
5207 5201 5196 5190 5184 5179 5174 5168 5163 5158 5152 5147 5145 5143 5138 5134 5130 5126 5122 5118 5114 5108 5104 5103 5101 5095 5090 5089 5085 5079 5075 5071 5069 5068 5065 5063 5061 5060 5058 5057 5057 5057
5192 5186 5181 5175 5169 5163 5158 5153 5147 5142 5137 5132 5129 5128 5125 5120 5116 5112 5107 5103 5099 5095 5089 5087 5087 5082 5077 5075 5071 5066 5061 5058 5056 5054 5052 5050 5049 5048 5045 5044 5045 5045
5179 5172 5165 5160 5155 5149 5143 5138 5132 5127 5123 5118 5114 5112 5111 5107 5102 5099 5095 5090 5085 5081 5076 5072 5073 5071 5066 5062 5059 5054 5049 5046 5044 5042 5040 5040 5039 5038 5036 5034 5034 5034
5165 5158 5151 5145 5140 5135 5129 5123 5118 5114 5109 5105 5101 5098 5096 5093 5089 5085 5084 5079 5073 5068 5063 5060 5060 5059 5054 5050 5047 5043 5040 5037 5035 5032 5032 5031 5031 5029 5028 5026 5025 5026
5152 5144 5138 5132 5126 5122 5117 5111 5105 5101 5098 5094 5091 5088 5084 5081 5077 5074 5072 5069 5063 5057 5053 5050 5049 5048 5044 5041 5038 5035 5032 5029 5026 5024 5024 5024 5023 5022 5021 5019 5018 5018